Regional Weather Roundup
Issued by NWS Sioux Falls, SD

Home | Current Version | Previous Version | Graphics & Text | Print | Product List | Glossary On
Versions: 1 2 3 4 5 6 7 8 9 10 11 12 13 14 15 16 17 18 19 20 21 22 23 24 25 26 27 28 29 30 31 32 33 34 35 36 37 38 39 40 41 42 43 44 45 46 47 48 49 50
000
ASUS43 KFSD 250210
RWRFSD

WEATHER ROUNDUP FOR SE SOUTH DAKOTA/SW MINNESOTA/NW IOWA
NATIONAL WEATHER SERVICE SIOUX FALLS SD
900 PM CDT TUE MAY 24 2016

NOTE: "FAIR" INDICATES FEW OR NO CLOUDS BELOW 12,000 FEET WITH NO
SIGNIFICANT WEATHER AND OR OBSTRUCTIONS TO VISIBILITY.


SDZ038>040-050-052>070-250300-
SOUTHEAST SOUTH DAKOTA

CITY           SKY/WX    TMP DP  RH WIND       PRES   REMARKS
BROOKINGS      CLEAR     76  45  33 CALM      29.84S
CHAMBERLAIN    CLOUDY    74  58  56 E7        29.78S
HURON          CLEAR     72  52  49 MISG      29.80S
MADISON        FAIR      75  46  35 SE6       29.84F
MITCHELL       CLOUDY    73  60  63 E7        29.79F
SIOUX FALLS    PTCLDY    76  54  46 SE13      29.84R
WINNER         FAIR      72  56  57 SE14      29.76F
YANKTON        CLEAR     75  57  53 SE12      29.80F
$$

MNZ071-072-080-081-089-090-097-098-250300-
SOUTHWEST MINNESOTA

CITY           SKY/WX    TMP DP  RH WIND       PRES   REMARKS
FAIRMONT       CLEAR     75  54  46 SE13      29.88R
JACKSON        CLEAR     77  50  38 S3        29.89R
LUVERNE        CLEAR     75  54  46 SE6       29.86S
MARSHALL       CLEAR     76  52  43 E9        29.84S
MONTEVIDEO     CLEAR     73  54  49 SE7       29.86R
PIPESTONE      CLEAR     77  37  24 S5        29.86S
REDWOOD FALLS  CLEAR     74  51  44 E10       29.85S
TRACY          CLEAR     79  54  41 S7        29.85S
WINDOM         CLEAR     75  55  50 CALM      29.87R
WORTHINGTON    CLEAR     74  62  66 SE8       29.87F
$$

IAZ001>003-012>014-020>022-031-032-NEZ013-014-SDZ071-250300-
NORTHWEST IOWA

CITY           SKY/WX    TMP DP  RH WIND       PRES   REMARKS
CHEROKEE       CLEAR     73  64  72 SE7       29.87R
DENISON        CLEAR     73  63  68 SE3       29.86R
ESTHERVILLE    CLEAR     74  59  59 SE13      29.88R
LE MARS        CLEAR     75  64  69 SE5       29.85F
ORANGE CITY    CLEAR     75  64  69 SE5       29.86S
SHELDON        CLEAR     73  66  78 SE7       29.85S
SIOUX CITY     CLEAR     76  65  68 SE9       29.84S
SPENCER        PTCLDY    74  60  61 SE9       29.88R
STORM LAKE     CLEAR     73  63  68 SE12      29.89S
$$

ABBREVIATIONS USED IN REMARKS
   TC - TEMPERATURE IN CELSIUS
  WCI - WIND CHILL INDEX
   HX - HEAT INDEX
  VSB - VISIBILITY




USA.gov is the U.S. government's official web portal to all federal, state and local government web resources and services.